FALCON HEAVY R/B, 68894

Orbit data source: Space-Track

FALCON HEAVY R/B, 68894 is space debris originally from a launch on Wed, 29 Apr 2026 UTC launched from the Air Force Eastern Test Range (AFETR). Debris objects in space refer to the collection of defunct objects orbiting the Earth. Examples of debris include non-operational satellites, rocket bodies, and fragments generated from explosions, collisions, or faulty payload assembly.

Not visible in the next 10 days
Identifier
68894, 2026-096B
Orbit
Active
Country
Flag of USUS
Related business
Manufacturer
SpaceX
Mission
Spacecraft
Bus & Motor
F9ST2, Unknown motor
Mass
~4,000 kg wet, ~4,000 kg dry
Launch date (UTC)
2026-04-29 (2 months ago)
Launch vehicle
Unknown
Launch site
Air Force Eastern Test Range (AFETR)
Object type
Payload
Rocket body
Debris
Shape & HBR
Unknown shape, 8.0 m
Radar Cross Section
Large (>1 m²)

Expand to show TLE details & history
Last TLE update: 12 hours ago

TLE from 12 hours ago
0 FALCON HEAVY R/B
1 68894U 26096B   26171.34610112 -.00000113  00000-0  00000+0 0  9998
2 68894   2.6172 279.3490 1482728 182.3644 177.2630  1.35919138   702
Epoch: 2026-06-20T08:18Z
TLE epoch observation values (Epoch: 2026-06-20T08:18:23.136Z)
Latitude
Longitude
-113.51065°
Altitude
33,161.027 km
Speed
2.93 km/s
True Right ascension
18h 38m 35s
True Declination
0° 00' 00"
Sunlit
Object was in daylight at epoch
Visualization orbit readout
Latitude
Unknown
Longitude
Unknown
Altitude
Unknown
Speed
Unknown
Apparent Right ascension
Unknown
Apparent Declination
Unknown
Sunlit
N/A
Visualization observer readout
Local Sidereal Time
07:21:50
Azimuth
Unknown
Elevation
Unknown
Doppler factor
Unknown
Orbital elements
Apogee altitude
33,153.374 km
Perigee altitude
22,944.218 km
Semi-major axis
34,426.933 km
Eccentricity
0.14827
Inclination
2.6172°
RAAN
279.349°
Arg. of periapsis
182.3644°
True anomaly
177.947°
Mean anomaly
177.263°
Eccentric anomaly
177.61633°
Mean motion
0.33978 °/min
Orbital period
1,059.51 mins
BSTAR
0
Loading maneuver chart data...
Computing Atmospheric mass density...
Loading historical data...
Loading historical data...
Loading historical data...
Loading historical data...
Loading historical data...
Loading historical data...
Loading historical data...
Other satellites on launch #96 in the year 2026 (2026-04-29 UTC)

Documentation

Showing up to 5 results
|